CAPE
0 0 0 0 0 0 0 0 0 0 0 1 0 0 0 0 0 1 1 1 0 0 1 1 0 0 0 0 0 0 0 0 0 2 4 1 2 1 1 1 1 1 2
0 0 0 0 0 0 0 0 0 0 0 0 1 0 0 0 0 1 2 1 1 1 1 0 0 1 0 3 0 0 0 0 0 1 6 2 3 0 1 1 1 1 0
0 0 0 0 0 0 0 0 0 1 0 0 0 0 0 0 0 0 1 2 1 1 1 1 0 0 1 1 1 0 0 0 0 0 6 2 2 1 1 1 0 0 0
0 0 0 0 0 0 0 0 0 0 0 0 0 0 0 0 0 1 2 2 2 2 3 2 1 1 0 0 3 0 1 0 0 2 6 5 2 1 0 0 0 0 0
0 0 0 0 0 0 0 0 0 0 0 0 0 0 0 0 0 0 0 0 1 0 2 1 3 0 0 1 2 2 2 1 1 1 6 8 7 7 2 0 0 0 0
0 0 0 0 0 0 0 0 0 0 0 0 0 0 0 0 2 1 0 0 0 0 0 1 0 0 1 0 0 0 0 0 0 0 0 1 2 0 0 0 0 0 0
0 0 0 0 0 0 0 0 0 0 0 0 0 0 0 0 2 1 0 0 0 0 0 0 0 0 0 0 0 0 0 0 0 0 0 0 0 0 0 0 0 0 0
0 0 0 0 0 0 0 0 0 0 0 0 0 0 0 0 0 0 0 0 0 0 0 0 0 0 0 0 0 0 0 0 0 0 0 0 0 0 0 0 0 0 0
0 0 0 0 0 0 0 0 0 0 0 0 0 0 0 0 0 0 0 0 0 0 0 0 0 0 0 0 0 0 0 0 0 0 0 0 0 0 0 0 0 0 0
0 0 0 0 0 0 0 0 0 0 0 0 0 0 0 0 0 0 0 0 0 0 0 0 0 0 0 0 0 0 0 0 0 0 0 0 0 0 0 0 0 0 0
0 0 0 0 0 0 0 0 0 0 0 0 0 0 0 0 0 0 0 0 0 0 0 0 0 0 0 0 0 0 0 0 0 0 0 0 0 0 0 0 0 0 0
0 0 0 0 0 0 0 0 0 0 0 0 0 0 0 0 0 0 0 0 0 0 0 0 0 0 0 0 0 0 0 0 0 0 0 0 0 0 0 0 0 0 0
0 0 0 0 0 0 0 0 0 0 0 0 0 0 0 0 0 0 0 0 0 0 0 0 0 0 0 0 0 0 0 0 0 0 0 0 0 0 0 0 0 0 0
0 0 0 0 0 0 0 0 0 0 0 0 0 0 0 0 0 0 0 0 0 0 0 0 0 0 0 0 0 0 0 0 0 0 0 0 0 0 0 0 0 0 0
0 0 0 0 0 0 0 0 0 0 0 0 0 0 0 0 0 0 0 0 0 0 0 0 0 0 0 0 0 0 0 0 0 0 0 0 0 0 0 0 0 0 0
0 0 0 0 0 0 0 0 0 0 0 0 0 0 0 0 0 0 0 0 0 0 0 0 0 0 0 0 0 0 0 0 0 0 0 0 0 0 0 0 0 0 0
0 0 0 0 0 0 0 0 0 0 0 0 0 0 0 0 0 0 0 0 0 0 0 0 0 0 0 0 0 0 0 0 0 0 0 0 0 0 0 0 0 0 0
0 0 0 0 0 0 0 0 0 0 0 0 0 0 0 0 0 0 0 0 0 0 0 0 0 0 0 0 0 0 0 0 0 0 0 0 0 0 0 0 0 0 0
0 0 0 0 0 0 0 0 0 0 0 0 0 0 0 0 0 0 0 0 0 0 0 0 0 0 0 0 0 0 0 0 0 0 0 0 0 0 0 0 0 0 0
0 0 0 0 0 0 0 0 0 0 0 0 0 0 0 0 0 0 0 0 0 0 0 0 0 0 0 0 0 0 0 0 0 0 0 0 0 0 0 0 0 0 0
0 0 0 0 0 0 0 0 0 0 0 0 0 0 0 0 0 0 0 0 0 0 0 0 0 0 0 0 0 0 0 0 0 0 0 0 0 0 0 0 0 0 0
0 0 0 0 0 0 0 0 0 0 0 0 0 0 0 0 0 0 0 0 0 0 0 0 0 0 0 0 0 0 0 0 0 0 0 0 0 0 0 0 0 0 0
0 0 0 0 0 0 0 0 0 0 0 0 0 0 0 0 0 0 0 0 0 0 0 0 0 0 0 0 0 0 0 0 0 0 0 0 0 0 0 0 0 0 0
0 0 0 0 0 0 0 0 0 0 0 0 0 0 0 0 0 0 0 0 0 0 0 0 0 0 0 0 0 0 0 0 0 0 0 0 0 0 0 0 0 0 0
0 0 0 0 0 0 0 0 0 0 0 0 0 0 0 0 0 0 0 0 0 0 0 0 0 0 0 0 0 0 0 0 0 0 0 0 0 0 0 0 0 0 0
0 0 0 0 0 0 0 0 0 0 0 0 0 0 0 0 0 0 0 0 0 0 0 0 0 0 0 0 0 0 0 0 0 0 0 0 0 0 0 0 0 0 0
CIN
-0 -0 -0 -0 -0 -0 -0 -0 -0 -0 -0 -0 -0 -0 -0 -0 -0 -0 -0 -0 -0 -0 -0 -0 -0 -0 -0 -0 -0 -0 -0 -0 -0 -0 -0 -0 -0 -0 -0 -0 -0 -0 -0
-0 -0 -0 -0 -0 -0 -0 -0 -0 -0 -0 -0 -0 -0 -0 -0 -0 -0 -0 -0 -0 -0 -0 -0 -0 -0 -0 -0 -0 -0 -0 -0 -0 -0 -0 -0 -0 -0 -0 -0 -0 -0 -0
-0 -0 -0 -0 -0 -0 -0 -0 -0 -0 -0 -0 -0 -0 -0 -0 -0 -0 -0 -0 -0 -0 -0 -0 -0 -0 -0 -0 -0 -0 -0 -0 -0 -0 -0 -0 -0 -0 -0 -0 -0 -0 -0
-0 -0 -0 -0 -0 -0 -0 -0 -0 -0 -0 -0 -0 -0 -0 -0 -0 -0 -0 -0 -0 -0 -0 -0 -0 -0 -0 -0 -0 -0 -0 -0 -0 -0 -0 -0 -0 -0 -0 -0 -0 -0 -0
-0 -0 -0 -0 -0 -0 -0 -0 -0 -0 -0 -0 -0 -0 -0 -0 -0 -0 -0 -0 -0 -0 -0 -0 -0 -0 -0 -0 -0 -0 -0 -0 -0 -0 -0 -0 -0 -0 -0 -0 -0 -0 -0
-0 -0 -0 -0 -0 -0 -0 -0 -0 -0 -0 -0 -0 -0 -0 -0 -0 -0 -0 -0 -0 -0 -0 -0 -0 -0 -0 -0 -0 -0 -0 -0 -0 -0 -0 -0 -0 -0 -0 -0 -0 -0 -0
-0 -0 -0 -0 -0 -0 -0 -0 -0 -0 -0 -0 -0 -0 -0 -0 -0 -0 -0 -0 -0 -0 -0 -0 -0 -0 -0 -0 -0 -0 -0 -0 -0 -0 -0 -0 -0 -0 -0 -0 -0 -0 -0
-0 -0 -0 -0 -0 -0 -0 -0 -0 -0 -0 -0 -0 -0 -0 -0 -0 -0 -0 -0 -0 -0 -0 -0 -0 -0 -0 -0 -0 -0 -0 -0 -0 -0 -0 -0 -0 -0 -0 -0 -0 -0 -0
-0 -0 -0 -0 -0 -0 -0 -0 -0 -0 -0 -0 -0 -0 -0 -0 -0 -0 -0 -0 -0 -0 -0 -0 -0 -0 -0 -0 -0 -0 -0 -0 -0 -0 -0 -0 -0 -0 -0 -0 -0 -0 -0
-0 -0 -0 -0 -0 -0 -0 -0 -0 -0 -0 -0 -0 -0 -0 -0 -0 -0 -0 -0 -0 -0 -0 -0 -0 -0 -0 -0 -0 -0 -0 -0 -0 -0 -0 -0 -0 -0 -0 -0 -0 -0 -0
-0 -0 -0 -0 -0 -0 -0 -0 -0 -0 -0 -0 -0 -0 -0 -0 -0 -0 -0 -0 -0 -0 -0 -0 -0 -0 -0 -0 -0 -0 -0 -0 -0 -0 -0 -0 -0 -0 -0 -0 -0 -0 -0
-0 -0 -0 -0 -0 -0 -0 -0 -0 -0 -0 -0 -0 -0 -0 -0 -0 -0 -0 -0 -0 -0 -0 -0 -0 -0 -0 -0 -0 -0 -0 -0 -0 -0 -0 -0 -0 -0 -0 -0 -0 -0 -0
-0 -0 -0 -0 -0 -0 -0 -0 -0 -0 -0 -0 -0 -0 -0 -0 -0 -0 -0 -0 -0 -0 -0 -0 -0 -0 -0 -0 -0 -0 -0 -0 -0 -0 -0 -0 -0 -0 -0 -0 -0 -0 -0
-0 -0 -0 -0 -0 -0 -0 -0 -0 -0 -0 -0 -0 -0 -0 -0 -0 -0 -0 -0 -0 -0 -0 -0 -0 -0 -0 -0 -0 -0 -0 -0 -0 -0 -0 -0 -0 -0 -0 -0 -0 -0 -0
-0 -0 -0 -0 -0 -0 -0 -0 -0 -0 -0 -0 -0 -0 -0 -0 -0 -0 -0 -0 -0 -0 -0 -0 -0 -0 -0 -0 -0 -0 -0 -0 -0 -0 -0 -0 -0 -0 -0 -0 -0 -0 -0
-0 -0 -0 -0 -0 -0 -0 -0 -0 -0 -0 -0 -0 -0 -0 -0 -0 -0 -0 -0 -0 -0 -0 -0 -0 -0 -0 -0 -0 -0 -0 -0 -0 -0 -0 -0 -0 -0 -0 -0 -0 -0 -0
-0 -0 -0 -0 -0 -0 -0 -0 -0 -0 -0 -0 -0 -0 -0 -0 -0 -0 -0 -0 -0 -0 -0 -0 -0 -0 -0 -0 -0 -0 -0 -0 -0 -0 -0 -0 -0 -0 -0 -0 -0 -0 -0
-0 -0 -0 -0 -0 -0 -0 -0 -0 -0 -0 -0 -0 -0 -0 -0 -0 -0 -0 -0 -0 -0 -0 -0 -0 -0 -0 -0 -0 -0 -0 -0 -0 -0 -0 -0 -0 -0 -0 -0 -0 -0 -0
-0 -0 -0 -0 -0 -0 -0 -0 -0 -0 -0 -0 -0 -0 -0 -0 -0 -0 -0 -0 -0 -0 -0 -0 -0 -0 -0 -0 -0 -0 -0 -0 -0 -0 -0 -0 -0 -0 -0 -0 -0 -0 -0
-0 -0 -0 -0 -0 -0 -0 -0 -0 -0 -0 -0 -0 -0 -0 -0 -0 -0 -0 -0 -0 -0 -0 -0 -0 -0 -0 -0 -0 -0 -0 -1 -0 -0 -0 -0 -0 -0 -0 -0 -0 -0 -0
-0 -0 -0 -0 -0 -0 -0 -0 -0 -0 -0 -0 -0 -0 -0 -0 -0 -0 -0 -0 -0 -0 -0 -0 -0 -0 -0 -0 -0 -0 -0 -0 -0 -0 -0 -0 -1 -2 -0 -0 -0 -0 -0
-0 -0 -0 -0 -0 -0 -0 -0 -0 -0 -0 -0 -0 -0 -0 -0 -0 -0 -0 -0 -0 -0 -0 -0 -0 -0 -0 -0 -0 -0 -0 -0 -0 -0 -0 -0 -0 -0 -0 -0 -0 -0 -0
-0 -0 -0 -0 -0 -0 -0 -0 -0 -0 -0 -0 -0 -0 -0 -0 -0 -0 -0 -0 -0 -0 -0 -0 -0 -0 -0 -0 -0 -0 -0 -0 -0 -0 -0 -0 -0 -0 -0 -0 -0 -0 -0
-0 -0 -0 -0 -0 -0 -0 -0 -0 -0 -0 -0 -0 -0 -0 -0 -0 -0 -0 -0 -0 -0 -0 -0 -0 -0 -0 -0 -0 -0 -0 -0 -0 -0 -0 -0 -0 -0 -0 -0 -0 -0 -0
-0 -0 -0 -0 -0 -0 -0 -0 -0 -0 -0 -0 -0 -0 -0 -0 -0 -0 -0 -0 -0 -0 -0 -0 -0 -0 -0 -0 -0 -0 -0 -0 -0 -0 -0 -0 -0 -0 -0 -0 -0 -0 -0
-0 -0 -0 -0 -0 -0 -0 -0 -0 -0 -0 -0 -0 -0 -0 -0 -0 -0 -0 -0 -0 -0 -0 -0 -0 -0 -0 -0 -0 -0 -0 -0 -0 -0 -0 -0 -0 -0 -0 -0 -0 -0 -0
Wind_Speed
17 19 18 17 16 19 16 11 4 4 6 18 23 22 23 28 29 30 30 30 30 31 31 31 30 31 32 29 26 25 24 23 25 23 20 16 17 19 20 19 18 19 19
16 16 16 15 12 16 14 12 5 8 8 9 13 16 20 23 25 23 23 23 26 27 29 31 29 28 33 33 32 28 25 24 26 22 20 22 19 17 19 18 20 21 19
17 17 16 16 14 14 11 9 6 8 8 6 7 16 24 18 22 21 22 22 21 24 26 28 29 29 34 32 31 29 25 24 23 22 21 21 21 19 19 19 20 21 21
18 18 16 15 14 12 10 11 10 8 8 7 6 11 12 11 13 18 19 20 21 21 22 25 27 29 31 31 32 27 25 25 24 23 23 23 22 22 22 24 25 24 24
19 18 17 16 16 14 12 10 11 10 8 7 7 9 10 11 12 14 16 16 16 16 17 16 18 21 23 25 30 28 24 28 25 25 24 24 25 25 27 24 24 17 22
21 20 19 18 18 19 16 14 10 11 9 7 8 12 14 14 16 15 11 11 11 15 13 11 14 13 13 13 14 18 18 23 23 23 24 24 25 24 15 15 19 18 20
22 22 20 20 19 19 19 19 16 14 14 15 15 14 15 11 5 7 7 12 16 17 9 6 7 6 6 6 7 8 12 15 17 19 19 15 14 9 5 10 12 14 14
20 22 22 22 21 20 19 19 18 15 12 12 13 15 13 8 8 6 10 8 8 9 8 6 6 7 8 9 7 8 10 12 13 13 10 8 8 5 6 10 9 12 14
16 17 19 19 20 19 18 17 17 16 16 15 13 11 11 11 9 9 14 19 15 11 9 8 8 9 9 9 9 9 10 10 11 10 9 10 7 8 10 10 13 16 19
12 13 14 15 15 16 17 17 17 17 16 15 14 13 13 11 8 9 10 11 14 15 14 12 12 12 11 11 11 10 10 13 14 14 14 14 13 12 12 16 14 18 20
10 11 12 13 13 13 13 14 14 14 14 14 14 14 14 13 10 9 14 14 13 13 13 13 14 14 13 13 13 13 14 13 15 15 16 17 17 17 17 17 18 18 21
8 8 8 9 9 10 10 10 11 12 12 12 12 12 13 13 13 13 13 14 14 14 10 16 16 16 16 16 17 17 16 16 17 19 20 21 21 22 22 22 23 24 24
4 3 4 5 6 6 6 7 8 8 8 9 9 9 9 10 10 10 10 11 12 11 11 13 18 19 21 21 21 21 19 21 23 26 28 29 28 27 27 27 28 29 30
2 2 2 1 1 2 3 4 4 4 4 5 5 5 5 5 5 6 6 5 6 10 17 19 21 23 24 25 25 25 25 25 27 29 31 31 30 30 31 30 33 33 35
6 5 4 4 3 2 2 2 1 2 4 4 4 4 5 2 14 17 18 19 20 19 21 24 28 29 32 32 32 32 31 30 31 32 34 36 37 37 38 34 35 36 37
10 9 8 7 7 6 6 6 7 5 5 5 5 6 9 7 8 14 17 20 23 23 23 25 27 30 34 36 37 38 35 35 35 35 36 37 38 38 39 37 37 39 41
14 13 12 11 11 10 10 10 10 12 14 11 9 9 9 11 15 17 20 21 22 23 21 24 27 29 31 31 32 34 37 35 34 36 37 39 40 41 41 42 42 43 45
16 16 15 14 14 14 14 14 14 15 16 17 17 19 21 21 21 23 25 27 27 26 27 28 29 30 31 32 34 35 37 38 37 38 39 40 41 43 44 45 45 46 47
16 16 16 16 17 17 17 18 18 19 20 21 24 24 24 26 27 27 27 28 30 31 32 34 36 37 37 37 38 39 39 40 41 41 41 41 42 43 45 45 46 47 48
18 17 17 18 19 20 20 21 22 23 25 26 28 30 29 29 32 32 31 32 33 35 36 37 37 38 39 40 41 42 43 43 43 43 44 44 44 44 46 47 47 49 49
24 23 23 23 23 23 23 23 23 24 25 27 28 29 30 31 35 35 36 35 35 36 36 37 38 38 39 40 41 42 44 45 45 47 47 48 47 48 47 47 48 48 48
26 26 25 25 24 24 24 25 25 27 29 31 32 31 33 34 36 36 35 36 36 36 36 37 38 39 39 39 40 41 42 43 43 43 44 45 45 46 47 48 48 47 47
24 24 24 25 25 25 26 26 26 27 28 30 31 33 32 33 34 34 35 35 36 36 35 35 36 37 37 37 38 39 42 43 43 43 45 46 46 47 47 47 48 48 47
23 23 23 23 24 24 24 24 25 25 27 28 30 31 32 32 33 33 34 34 35 35 36 36 38 39 40 40 40 41 41 42 43 44 45 46 46 46 47 47 46 45 45
23 23 22 22 23 23 23 24 25 26 27 29 30 31 31 32 33 33 34 34 35 36 36 37 37 38 38 38 39 39 39 40 39 39 38 39 40 41 41 41 40 38 37
24 24 23 24 24 24 25 26 27 28 28 29 30 31 32 33 34 35 35 36 37 37 37 37 37 38 39 38 38 37 36 36 35 33 32 32 34 33 31 30 30 28 27
Wind_Direction
27 23 22 22 21 17 25 36 64 181 192 247 267 259 259 285 292 278 270 266 263 260 258 257 258 253 254 257 259 261 272 276 266 266 262 257 258 262 263 266 270 272 278
34 37 36 39 43 36 42 52 173 196 191 200 221 238 259 274 282 279 274 272 261 260 259 257 258 258 250 252 251 255 263 266 265 258 260 257 263 261 267 271 273 275 281
44 49 54 52 56 55 65 77 153 205 193 135 176 252 297 348 292 282 271 269 269 265 263 260 261 261 252 256 253 257 265 266 271 263 267 262 266 260 269 270 273 279 281
56 58 63 62 68 75 85 84 88 102 94 99 147 217 213 190 220 296 275 268 267 272 269 267 268 265 261 260 254 253 258 258 261 257 263 262 265 264 267 267 271 276 278
64 66 68 73 74 81 89 103 97 103 124 146 182 208 211 164 136 117 159 281 281 275 270 279 285 274 267 259 249 246 256 253 255 258 264 269 268 266 266 273 278 287 287
64 68 72 76 77 77 90 101 119 117 128 163 156 121 115 117 117 151 241 300 284 242 259 286 292 283 260 257 259 253 266 253 257 263 267 270 272 271 287 283 282 288 290
65 68 73 75 80 84 88 91 104 113 113 113 114 115 115 142 215 305 248 173 105 109 339 280 322 296 273 258 272 273 272 275 277 280 278 287 286 290 298 291 293 298 305
70 69 72 75 81 85 90 92 97 110 119 124 124 122 134 159 163 205 346 318 322 328 320 302 260 294 281 278 295 297 300 304 301 299 318 320 325 318 307 310 305 308 311
79 77 77 79 81 84 88 91 96 101 106 114 125 141 147 154 172 191 149 123 17 344 328 285 302 296 298 307 307 295 298 313 320 326 337 344 356 324 312 313 305 303 304
82 83 81 84 85 85 88 90 94 97 100 109 118 129 140 158 220 269 287 315 346 356 352 332 332 335 329 323 334 328 314 292 297 304 316 321 325 323 314 308 307 303 304
68 69 72 74 80 86 91 93 96 100 103 107 111 117 122 138 182 234 328 326 321 324 325 323 317 318 324 328 328 322 314 318 312 311 309 308 307 309 311 312 310 307 305
57 65 70 73 77 82 88 93 98 98 102 108 111 113 116 120 122 127 135 140 136 145 233 296 309 316 316 314 313 314 316 314 306 301 299 299 300 299 301 302 301 301 300
34 57 69 64 73 76 94 97 97 99 107 109 109 123 134 130 131 133 130 112 79 97 60 20 331 315 307 308 308 308 312 306 301 296 294 294 296 299 300 300 299 298 298
279 310 354 15 63 55 56 69 76 80 85 94 104 113 112 119 134 126 124 102 71 24 347 334 324 317 313 310 308 307 306 305 302 299 298 299 300 299 298 299 298 297 296
264 273 284 308 299 296 317 331 341 2 11 9 12 17 11 10 2 355 352 348 342 339 332 323 312 308 301 301 301 301 301 302 300 299 297 296 296 295 294 295 295 295 294
270 276 280 295 302 301 302 300 325 304 320 319 318 326 338 328 332 337 336 333 329 326 324 320 317 313 306 303 300 299 301 300 299 298 298 297 296 296 296 295 294 293 292
268 277 285 291 295 298 303 304 302 327 329 324 315 308 312 315 323 324 324 323 321 320 316 314 313 312 311 310 308 306 304 304 303 300 299 298 297 297 296 295 295 294 293
279 278 282 287 293 299 301 304 308 310 313 319 325 324 323 323 322 321 320 319 316 314 311 310 309 309 308 307 306 305 304 304 302 301 299 299 298 297 296 295 294 294 294
289 287 287 288 292 296 301 304 305 307 308 311 316 318 319 318 318 318 318 315 313 312 311 309 308 307 306 306 305 304 303 302 302 301 300 298 298 297 296 296 295 294 294
301 296 296 295 296 298 300 302 304 306 308 309 311 313 316 317 315 315 315 314 313 311 311 310 309 308 307 306 305 305 304 303 302 301 299 298 297 296 295 295 295 295 294
307 307 304 303 302 302 303 303 305 307 308 310 311 314 314 313 313 313 314 314 313 313 312 312 311 310 309 308 307 306 305 304 303 302 301 300 300 299 298 296 295 294 294
309 308 309 308 309 308 309 310 311 311 312 312 313 316 315 314 315 315 316 315 315 315 315 314 313 312 312 311 311 310 309 308 308 307 305 304 303 302 301 300 299 297 296
317 316 315 315 315 315 314 314 316 317 317 317 317 318 319 319 319 319 318 318 318 318 318 317 315 315 315 313 312 311 309 308 308 307 306 305 304 303 302 300 299 298 296
330 328 326 326 326 326 325 323 324 325 324 325 324 324 324 324 324 323 323 323 323 322 321 320 318 316 315 315 314 314 313 312 311 310 308 308 308 307 305 302 300 299 298
347 344 344 343 343 342 341 339 336 335 333 332 331 330 329 329 328 327 327 326 324 324 323 322 321 321 320 319 319 318 318 317 317 317 316 315 313 311 310 308 307 305 303
359 357 355 353 351 349 347 344 342 340 339 338 336 335 333 332 330 329 328 326 326 325 324 324 323 322 321 321 321 321 322 322 323 324 325 325 322 322 321 320 319 317 315